STARLINK-1943 (46795 NORAD) Tracking and Keplerian Element Data

This shows tracking and keplerian element data for the satellite.

Feedback or suggestion? Click here.




ElementValue
Catalog46795
NameSTARLINK-1943
Epoch Orbit534
Epoch Day331.16668981
Epoch Year2020
RAAN0.7956
Inclination53.055
Eccentricity0.0001291
Argument of Perigee72.955
Mean Anonmoly125.5991
Mean Motion15.62769645
Decay Rate-0.00037027
L11 46795U 20074BJ 20331.16668981 -.00037027 00000-0 -40013-3 0 9990
L22 46795 53.0550 0.7956 0001291 72.9550 125.5991 15.62769645 5344

Live tracking and technical data element details for STARLINK-1943 (NORAD 46795). STARLINK-1943 can be tracked NOW for your location showing map with azimuth and elevation plus other details from your city location.

Track the satellite on the map from your city or location and see movement details for azimuth, elevation, latitude, longitude, range, height, and movement on the map or in text.







IsCatalogInMostPopularTable: catalog: 46795, numindb: 5
Update: records affected: 1



GetName: 46795 STARLINK-1943

Hit Count: updated at: Thu, 26 Nov 2020 18:10:59 GMT